GW3604 Weather Reports


time (UTC)temp
C
wind
direction
speed
KPH
gust
KPH
rain 1hr
cm
rain 24hr
cm
rain mn
cm
humidity
%
barometer
mb
20260905235003 18 0 0.0 0.0 0.00 0.00 0.00 85 1010.5
20260905234003 18 0 0.0 0.0 0.00 0.00 0.00 84 1010.4
20260905233503 18 0 0.0 0.0 0.00 0.00 0.00 83 1010.4
20260905233003 18 0 0.0 0.0 0.00 0.00 0.00 83 1010.3
20260905232503 18 0 0.0 0.0 0.00 0.00 0.00 83 1010.3
20260905232004 18 0 0.0 0.0 0.00 0.00 0.00 83 1010.3
20260905231504 18 0 0.0 0.0 0.00 0.00 0.00 83 1010.3
20260905231003 18 0 0.0 0.0 0.00 0.00 0.00 82 1010.2
20260905230504 18 0 0.0 0.0 0.00 0.00 0.00 82 1010.1
20260905230003 18 0 0.0 0.0 0.00 0.00 0.00 82 1010.1
20260905225504 18 0 0.0 0.0 0.00 0.00 0.00 82 1010.0
20260905225003 18 0 0.0 0.0 0.00 0.00 0.00 82 1009.9
20260905224503 18 0 0.0 0.0 0.00 0.00 0.00 81 1009.9
20260905224003 18 0 0.0 0.0 0.00 0.00 0.00 81 1009.9
20260905223504 18 0 0.0 0.0 0.00 0.00 0.00 81 1009.8
20260905223003 18 0 0.0 0.0 0.00 0.00 0.00 80 1009.9
20260905222003 18 0 0.0 0.0 0.00 0.00 0.00 80 1009.8
20260905221504 18 0 0.0 0.0 0.00 0.00 0.00 80 1009.8
20260905221003 19 0 0.0 0.0 0.00 0.00 0.00 80 1009.8
20260905220503 19 0 0.0 0.0 0.00 0.00 0.00 80 1009.8
20260905220003 19 0 0.0 0.0 0.00 0.00 0.00 80 1009.8
20260905215503 19 0 0.0 0.0 0.00 0.00 0.00 79 1009.7
20260905215003 19 145 0.0 6.4 0.00 0.00 0.00 78 1009.6
20260905214504 19 145 0.0 6.4 0.00 0.00 0.00 78 1009.5
20260905213503 19 0 0.0 0.0 0.00 0.00 0.00 78 1009.3
20260905213003 19 150 0.0 9.7 0.00 0.00 0.00 78 1009.3
20260905212504 19 172 0.0 9.7 0.00 0.00 0.00 79 1009.3
20260905212003 20 194 0.0 6.4 0.00 0.00 0.00 79 1009.2
20260905211504 20 0 0.0 0.0 0.00 0.00 0.00 80 1009.2
20260905211003 20 0 0.0 0.0 0.00 0.00 0.00 79 1009.2
20260905210003 20 201 0.0 1.6 0.00 0.00 0.00 78 1009.0
20260905205504 20 201 0.0 4.8 0.00 0.00 0.00 77 1009.1
20260905205003 20 201 0.0 4.8 0.00 0.00 0.00 75 1009.2
20260905204503 21 149 0.0 11.3 0.00 0.00 0.00 74 1009.1
20260905204003 21 151 1.6 11.3 0.00 0.00 0.00 73 1009.1
20260905203504 21 172 0.0 6.4 0.00 0.00 0.00 71 1009.1
20260905203003 22 182 1.6 16.1 0.00 0.00 0.00 69 1009.1
20260905202003 23 157 0.0 6.4 0.00 0.00 0.00 65 1008.8
20260905201503 23 146 1.6 17.7 0.00 0.00 0.00 63 1008.8
20260905201004 23 130 1.6 17.7 0.00 0.00 0.00 61 1008.7
20260905200504 24 53 0.0 4.8 0.00 0.00 0.00 62 1008.4
20260905200003 24 126 0.0 4.8 0.00 0.00 0.00 62 1008.3
20260905195504 23 157 0.0 4.8 0.00 0.00 0.00 63 1008.2
20260905195004 23 210 0.0 4.8 0.00 0.00 0.00 64 1008.2
20260905194504 23 135 0.0 11.3 0.00 0.00 0.00 63 1008.2
20260905194003 23 133 1.6 11.3 0.00 0.00 0.00 63 1008.1
20260905193504 24 127 0.0 4.8 0.00 0.00 0.00 63 1008.2
20260905193003 24 126 0.0 6.4 0.00 0.00 0.00 62 1008.2
20260905192503 24 126 0.0 6.4 0.00 0.00 0.00 61 1008.2
20260905192003 24 0 0.0 0.0 0.00 0.00 0.00 60 1008.2
20260905191504 24 135 0.0 6.4 0.00 0.00 0.00 61 1008.2
20260905190504 24 161 0.0 8.0 0.00 0.00 0.00 62 1008.2
20260905190003 24 163 0.0 8.0 0.00 0.00 0.00 60 1008.2
20260905185503 24 139 0.0 6.4 0.00 0.00 0.00 64 1008.2
20260905185003 24 139 0.0 6.4 0.00 0.00 0.00 61 1008.3
20260905184503 24 0 0.0 0.0 0.00 0.00 0.00 62 1008.3
20260905184003 24 119 0.0 11.3 0.00 0.00 0.00 62 1008.3
20260905183004 24 143 0.0 8.0 0.00 0.00 0.00 61 1008.2
20260905182503 24 132 0.0 4.8 0.00 0.00 0.00 64 1008.3
20260905182003 24 128 0.0 4.8 0.00 0.00 0.00 64 1008.3
20260905181004 23 235 0.0 4.8 0.00 0.00 0.00 60 1008.2
20260905180503 23 205 0.0 6.4 0.00 0.00 0.00 61 1008.2
20260905180004 23 158 0.0 6.4 0.00 0.00 0.00 63 1008.2
20260905175504 23 114 0.0 3.2 0.00 0.00 0.00 64 1008.3
20260905175003 23 88 0.0 6.4 0.00 0.00 0.00 62 1008.2
20260905174503 23 113 0.0 6.4 0.00 0.00 0.00 64 1008.2
20260905174004 23 172 0.0 4.8 0.00 0.00 0.00 63 1008.1
20260905173503 23 0 0.0 0.0 0.00 0.00 0.00 62 1008.1
20260905173003 23 215 0.0 4.8 0.00 0.00 0.00 63 1008.1
20260905172504 23 215 0.0 4.8 0.00 0.00 0.00 62 1007.8
20260905172003 23 0 0.0 0.0 0.00 0.00 0.00 62 1007.9
20260905171503 23 0 0.0 0.0 0.00 0.00 0.00 62 1007.8
20260905171003 23 144 0.0 6.4 0.00 0.00 0.00 62 1007.8
20260905170503 23 133 0.0 9.7 0.00 0.00 0.00 60 1007.8
20260905170003 23 124 0.0 9.7 0.00 0.00 0.00 62 1008.0
20260905165503 23 260 0.0 3.2 0.00 0.00 0.00 62 1007.9
20260905165003 23 175 0.0 4.8 0.00 0.00 0.00 63 1007.8
20260905164504 23 132 0.0 4.8 0.00 0.00 0.00 62 1007.8
20260905164003 23 351 0.0 3.2 0.00 0.00 0.00 62 1007.8
20260905163504 23 97 0.0 4.8 0.00 0.00 0.00 62 1007.9
20260905162003 22 191 0.0 6.4 0.00 0.00 0.00 66 1008.1
20260905161504 22 261 0.0 6.4 0.00 0.00 0.00 65 1008.1
20260905161003 22 251 0.0 6.4 0.00 0.00 0.00 65 1008.1
20260905160503 22 249 0.0 4.8 0.00 0.00 0.00 65 1008.2
20260905155504 22 237 0.0 4.8 0.00 0.00 0.00 68 1008.0
20260905155003 22 237 0.0 4.8 0.00 0.00 0.00 67 1008.0
20260905154503 22 0 0.0 0.0 0.00 0.00 0.00 68 1008.1
20260905154003 22 274 0.0 3.2 0.00 0.00 0.00 72 1008.2
20260905153504 22 274 0.0 3.2 0.00 0.00 0.00 71 1008.2
20260905153003 22 273 0.0 3.2 0.00 0.00 0.00 72 1008.2
20260905152504 21 0 0.0 0.0 0.00 0.00 0.00 73 1008.2
20260905152004 21 0 0.0 0.0 0.00 0.00 0.00 73 1008.2
20260905151503 21 0 0.0 0.0 0.00 0.00 0.00 74 1008.2
20260905151004 21 0 0.0 0.0 0.00 0.00 0.00 74 1008.2
20260905150004 21 0 0.0 0.0 0.00 0.00 0.00 76 1008.1
20260905145004 21 0 0.0 0.0 0.00 0.00 0.00 77 1008.2
20260905144503 21 0 0.0 0.0 0.00 0.00 0.00 77 1008.2
20260905144003 20 0 0.0 0.0 0.00 0.00 0.00 77 1008.3
20260905143503 20 0 0.0 0.0 0.00 0.00 0.00 78 1008.3
20260905143003 20 0 0.0 0.0 0.00 0.00 0.00 80 1008.3
20260905142504 20 0 0.0 0.0 0.00 0.00 0.00 79 1008.3
20260905142003 20 0 0.0 0.0 0.00 0.00 0.00 80 1008.3
20260905141504 20 0 0.0 0.0 0.00 0.00 0.00 82 1008.3
20260905140004 19 0 0.0 0.0 0.00 0.00 0.00 86 1008.3
20260905135503 19 0 0.0 0.0 0.00 0.00 0.00 87 1008.2
20260905135003 18 0 0.0 0.0 0.00 0.00 0.00 88 1008.2
20260905134504 18 0 0.0 0.0 0.00 0.00 0.00 89 1008.2
20260905134003 18 272 0.0 3.2 0.00 0.00 0.00 90 1008.2
20260905133504 18 272 0.0 3.2 0.00 0.00 0.00 92 1008.1
20260905133003 18 0 0.0 0.0 0.00 0.00 0.00 93 1008.0
20260905132504 18 0 0.0 0.0 0.00 0.00 0.00 94 1007.9
20260905132003 18 0 0.0 0.0 0.00 0.00 0.00 95 1007.8
20260905131003 17 0 0.0 0.0 0.00 0.00 0.00 100 1007.7
20260905130503 17 0 0.0 0.0 0.00 0.00 0.00 100 1007.7
20260905130004 17 0 0.0 0.0 0.00 0.00 0.00 100 1007.7
20260905125504 17 0 0.0 0.0 0.00 0.00 0.00 100 1007.7
20260905125003 17 0 0.0 0.0 0.00 0.00 0.00 100 1007.7
20260905124504 17 0 0.0 0.0 0.00 0.00 0.00 100 1007.7
20260905124003 17 0 0.0 0.0 0.00 0.00 0.00 100 1007.6
20260905123503 17 0 0.0 0.0 0.00 0.00 0.00 100 1007.5
20260905122504 16 0 0.0 0.0 0.00 0.00 0.00 100 1007.4
20260905122004 16 0 0.0 0.0 0.00 0.00 0.00 100 1007.3
20260905121503 16 0 0.0 0.0 0.00 0.00 0.00 100 1007.2
20260905121004 16 0 0.0 0.0 0.00 0.00 0.00 100 1007.2
20260905120003 16 0 0.0 0.0 0.00 0.00 0.00 100 1007.2
20260905115503 16 0 0.0 0.0 0.00 0.00 0.00 100 1007.2
20260905115004 16 0 0.0 0.0 0.00 0.00 0.00 100 1007.2
20260905114503 15 0 0.0 0.0 0.00 0.00 0.00 100 1007.2
20260905114003 15 0 0.0 0.0 0.00 0.00 0.00 100 1007.1
20260905113503 15 0 0.0 0.0 0.00 0.00 0.00 100 1007.0
20260905113004 15 0 0.0 0.0 0.00 0.00 0.00 96 1007.0
20260905112503 15 0 0.0 0.0 0.00 0.00 0.00 96 1007.0
20260905112004 15 0 0.0 0.0 0.00 0.00 0.00 95 1007.1
20260905111503 15 0 0.0 0.0 0.00 0.00 0.00 95 1007.0
20260905111003 15 0 0.0 0.0 0.00 0.00 0.00 95 1007.0
20260905110503 15 0 0.0 0.0 0.00 0.00 0.00 94 1006.9
20260905110004 15 0 0.0 0.0 0.00 0.00 0.00 94 1007.0
20260905105004 15 0 0.0 0.0 0.00 0.00 0.00 94 1006.8
20260905104503 15 0 0.0 0.0 0.00 0.00 0.00 94 1006.8
20260905104004 15 0 0.0 0.0 0.00 0.00 0.00 94 1006.9
20260905103503 15 0 0.0 0.0 0.00 0.00 0.00 94 1006.9
20260905103003 15 0 0.0 0.0 0.00 0.00 0.00 94 1006.8
20260905102504 15 0 0.0 0.0 0.00 0.00 0.00 93 1006.8
20260905101003 15 0 0.0 0.0 0.00 0.00 0.00 93 1006.7
20260905100504 15 0 0.0 0.0 0.00 0.00 0.00 92 1006.6
20260905100003 15 0 0.0 0.0 0.00 0.00 0.00 92 1006.7
20260905095503 15 0 0.0 0.0 0.00 0.00 0.00 92 1006.6
20260905095003 15 0 0.0 0.0 0.00 0.00 0.00 92 1006.6
20260905094503 15 0 0.0 0.0 0.00 0.00 0.00 92 1006.5
20260905094004 15 0 0.0 0.0 0.00 0.00 0.00 92 1006.5
20260905093503 15 0 0.0 0.0 0.00 0.00 0.00 92 1006.5
20260905093004 15 0 0.0 0.0 0.00 0.00 0.00 92 1006.5
20260905092003 15 0 0.0 0.0 0.00 0.00 0.00 91 1006.4
20260905091503 15 0 0.0 0.0 0.00 0.00 0.00 91 1006.4
20260905091003 15 0 0.0 0.0 0.00 0.00 0.00 91 1006.3
20260905090503 15 0 0.0 0.0 0.00 0.00 0.00 91 1006.4
20260905090004 15 0 0.0 0.0 0.00 0.00 0.00 91 1006.4
20260905085503 15 0 0.0 0.0 0.00 0.00 0.00 91 1006.3
20260905084504 15 0 0.0 0.0 0.00 0.00 0.00 91 1006.2
20260905084003 15 0 0.0 0.0 0.00 0.00 0.00 91 1006.2
20260905083503 15 0 0.0 0.0 0.00 0.00 0.00 91 1006.1
20260905083004 15 0 0.0 0.0 0.00 0.00 0.00 91 1006.1
20260905081503 15 0 0.0 0.0 0.00 0.00 0.00 90 1006.2
20260905081004 15 0 0.0 0.0 0.00 0.00 0.00 90 1006.2
20260905080503 15 0 0.0 0.0 0.00 0.00 0.00 89 1006.1
20260905080004 15 0 0.0 0.0 0.00 0.00 0.00 89 1006.2
20260905075504 15 0 0.0 0.0 0.00 0.00 0.00 89 1006.1
20260905074504 15 0 0.0 0.0 0.00 0.00 0.00 89 1006.2
20260905074003 16 0 0.0 0.0 0.00 0.00 0.00 89 1006.2
20260905073503 16 0 0.0 0.0 0.00 0.00 0.00 89 1006.2
20260905073003 16 0 0.0 0.0 0.00 0.00 0.00 89 1006.2
20260905072503 16 0 0.0 0.0 0.00 0.00 0.00 89 1006.3
20260905072004 16 0 0.0 0.0 0.00 0.00 0.00 89 1006.4
20260905071503 16 0 0.0 0.0 0.00 0.00 0.00 89 1006.4
20260905071004 16 0 0.0 0.0 0.00 0.00 0.00 89 1006.4
20260905070503 16 0 0.0 0.0 0.00 0.00 0.00 89 1006.5
20260905065504 16 0 0.0 0.0 0.00 0.00 0.00 89 1006.6
20260905064003 16 0 0.0 0.0 0.00 0.00 0.00 89 1006.7
20260905063503 16 0 0.0 0.0 0.00 0.00 0.00 89 1006.7
20260905063003 16 0 0.0 0.0 0.00 0.00 0.00 88 1006.6
20260905062503 16 0 0.0 0.0 0.00 0.00 0.00 88 1006.7
20260905062003 16 0 0.0 0.0 0.00 0.00 0.00 87 1006.7
20260905061504 16 0 0.0 0.0 0.00 0.00 0.00 87 1006.7
20260905061003 16 0 0.0 0.0 0.00 0.00 0.00 87 1006.8
20260905060503 16 0 0.0 0.0 0.00 0.00 0.00 87 1006.9
20260905060003 16 0 0.0 0.0 0.00 0.00 0.00 87 1007.1
20260905055003 16 0 0.0 0.0 0.00 0.00 0.00 87 1006.9
20260905054503 16 0 0.0 0.0 0.00 0.00 0.00 87 1006.8
20260905054003 16 0 0.0 0.0 0.00 0.00 0.00 87 1006.8
20260905053503 16 0 0.0 0.0 0.00 0.00 0.00 86 1006.9
20260905053003 16 0 0.0 0.0 0.00 0.00 0.00 86 1007.0
20260905052503 16 0 0.0 0.0 0.00 0.00 0.00 86 1006.9
20260905052003 16 0 0.0 0.0 0.00 0.00 0.00 86 1006.8
20260905051504 16 0 0.0 0.0 0.00 0.00 0.00 86 1006.9
20260905051003 16 0 0.0 0.0 0.00 0.00 0.00 86 1007.0
20260905050503 17 0 0.0 0.0 0.00 0.00 0.00 86 1007.0
20260905050003 17 0 0.0 0.0 0.00 0.00 0.00 85 1007.1
20260905045504 17 0 0.0 0.0 0.00 0.00 0.00 85 1007.1
20260905045003 17 0 0.0 0.0 0.00 0.00 0.00 85 1006.9
20260905044504 17 0 0.0 0.0 0.00 0.00 0.00 84 1006.9
20260905044003 17 0 0.0 0.0 0.00 0.00 0.00 84 1006.8
20260905043504 17 0 0.0 0.0 0.00 0.00 0.00 84 1006.7
20260905043003 17 0 0.0 0.0 0.00 0.00 0.00 84 1006.8
20260905042504 17 0 0.0 0.0 0.00 0.00 0.00 84 1006.8
20260905041503 17 0 0.0 0.0 0.00 0.00 0.00 83 1007.1
20260905041003 17 0 0.0 0.0 0.00 0.00 0.00 83 1007.2
20260905040004 17 0 0.0 0.0 0.00 0.00 0.00 82 1007.1
20260905035503 17 0 0.0 0.0 0.00 0.00 0.00 83 1006.8
20260905035004 17 0 0.0 0.0 0.00 0.00 0.00 83 1006.8
20260905034503 18 0 0.0 0.0 0.00 0.00 0.00 83 1006.9
20260905034004 18 0 0.0 0.0 0.00 0.00 0.00 83 1007.0
20260905033503 18 0 0.0 0.0 0.00 0.00 0.00 83 1007.1
20260905033003 18 0 0.0 0.0 0.00 0.00 0.00 82 1007.0
20260905032504 18 0 0.0 0.0 0.00 0.00 0.00 82 1007.0
20260905031504 18 0 0.0 0.0 0.00 0.00 0.00 81 1007.1
20260905031003 18 0 0.0 0.0 0.00 0.00 0.00 82 1007.1
20260905030504 18 0 0.0 0.0 0.00 0.00 0.00 81 1007.1
20260905030003 18 0 0.0 0.0 0.00 0.00 0.00 81 1007.2
20260905025004 18 0 0.0 0.0 0.00 0.00 0.00 81 1007.2
20260905024503 18 0 0.0 0.0 0.00 0.00 0.00 80 1007.2
20260905024003 18 0 0.0 0.0 0.00 0.00 0.00 80 1007.2
20260905023504 18 0 0.0 0.0 0.00 0.00 0.00 80 1007.2
20260905023003 18 0 0.0 0.0 0.00 0.00 0.00 80 1007.2
20260905022504 18 0 0.0 0.0 0.00 0.00 0.00 80 1007.2
20260905022004 18 0 0.0 0.0 0.00 0.00 0.00 78 1007.2
20260905021503 18 0 0.0 0.0 0.00 0.00 0.00 78 1007.2
20260905021004 18 0 0.0 0.0 0.00 0.00 0.00 77 1007.2
20260905020503 18 0 0.0 0.0 0.00 0.00 0.00 77 1007.3
20260905015504 19 0 0.0 0.0 0.00 0.00 0.00 77 1007.3
20260905015003 19 0 0.0 0.0 0.00 0.00 0.00 77 1007.3
20260905014003 20 0 0.0 0.0 0.00 0.00 0.00 75 1007.4
20260905013503 20 0 0.0 0.0 0.00 0.00 0.00 76 1007.5
20260905013003 20 0 0.0 0.0 0.00 0.00 0.00 75 1007.6
20260905012008 20 0 0.0 0.0 0.00 0.00 0.00 74 1007.5
20260905011506 20 0 0.0 0.0 0.00 0.00 0.00 73 1007.6
20260905011003 20 0 0.0 0.0 0.00 0.00 0.00 73 1007.5
20260905010004 20 0 0.0 0.0 0.00 0.00 0.00 72 1007.5
20260905005503 21 0 0.0 0.0 0.00 0.00 0.00 72 1007.4
20260905005003 21 0 0.0 0.0 0.00 0.00 0.00 72 1007.3
20260905004503 21 0 0.0 0.0 0.00 0.00 0.00 71 1007.3
20260905004003 21 0 0.0 0.0 0.00 0.00 0.00 71 1007.2
20260905003503 21 0 0.0 0.0 0.00 0.00 0.00 71 1007.2
20260905002504 21 0 0.0 0.0 0.00 0.00 0.00 68 1007.2
20260905002003 22 0 0.0 0.0 0.00 0.00 0.00 68 1007.3
20260905001503 22 0 0.0 0.0 0.00 0.00 0.00 67 1007.2
20260905001004 22 0 0.0 0.0 0.00 0.00 0.00 66 1007.2
20260905000503 22 0 0.0 0.0 0.00 0.00 0.00 66 1007.2
20260905000003 22 0 0.0 0.0 0.00 0.00 0.00 65 1007.2
20260904235503 22 0 0.0 0.0 0.00 0.00 0.00 63 1007.2